Time,TemperatureF,DewpointF,PressureIn,WindDirection,WindDirectionDegrees,WindSpeedMPH,WindSpeedGustMPH,Humidity,HourlyPrecipIn,Conditions,Clouds,dailyrainin,SoftwareType,DateUTC
2013-06-22 00:03:00,68.4,64.7,29.93,SW,225,3.7,-999.0,88,-99.99,,,0.00,Acu-Link.com,2013-06-22 04:03:00,
2013-06-22 00:19:00,68.7,65.0,29.94,West,270,0.0,-999.0,88,-99.99,,,0.00,Acu-Link.com,2013-06-22 04:19:00,
2013-06-22 00:34:00,69.1,65.4,29.93,West,270,0.0,-999.0,88,-99.99,,,0.00,Acu-Link.com,2013-06-22 04:34:00,
2013-06-22 00:49:00,69.1,65.4,29.93,SW,225,0.0,-999.0,88,-99.99,,,0.00,Acu-Link.com,2013-06-22 04:49:00,
2013-06-22 01:04:00,69.1,65.4,29.93,WSW,247,0.0,-999.0,88,-99.99,,,0.00,Acu-Link.com,2013-06-22 05:04:00,
2013-06-22 01:19:00,69.3,65.6,29.93,SW,225,0.0,-999.0,88,-99.99,,,0.00,Acu-Link.com,2013-06-22 05:19:00,
2013-06-22 01:35:00,69.4,65.7,29.92,WSW,247,0.0,-999.0,88,-99.99,,,0.00,Acu-Link.com,2013-06-22 05:35:00,
2013-06-22 01:50:00,69.3,65.6,29.91,West,270,0.0,-999.0,88,-99.99,,,0.00,Acu-Link.com,2013-06-22 05:50:00,
2013-06-22 02:05:00,69.1,65.4,29.91,WNW,292,0.0,-999.0,88,-99.99,,,0.00,Acu-Link.com,2013-06-22 06:05:00,
2013-06-22 02:20:00,68.9,65.5,29.90,West,270,0.0,-999.0,89,-99.99,,,0.00,Acu-Link.com,2013-06-22 06:20:00,
2013-06-22 02:35:00,68.5,65.4,29.90,West,270,0.0,-999.0,90,-99.99,,,0.00,Acu-Link.com,2013-06-22 06:35:00,
2013-06-22 02:51:00,68.0,65.3,29.90,WSW,247,0.0,-999.0,91,-99.99,,,0.00,Acu-Link.com,2013-06-22 06:51:00,
2013-06-22 03:06:00,68.2,65.5,29.89,WSW,247,0.0,-999.0,91,-99.99,,,0.00,Acu-Link.com,2013-06-22 07:06:00,
2013-06-22 03:21:00,68.2,65.5,29.89,SW,225,0.0,-999.0,91,-99.99,,,0.00,Acu-Link.com,2013-06-22 07:21:00,
2013-06-22 03:36:00,68.4,65.3,29.88,West,270,0.0,-999.0,90,-99.99,,,0.00,Acu-Link.com,2013-06-22 07:36:00,
2013-06-22 04:01:00,68.5,65.4,29.89,SSW,202,0.0,-999.0,90,-99.99,,,0.00,Acu-Link.com,2013-06-22 08:01:00,
2013-06-22 04:16:00,68.4,65.3,29.88,SSW,202,0.0,-999.0,90,-99.99,,,0.00,Acu-Link.com,2013-06-22 08:16:00,
2013-06-22 04:32:00,68.4,65.3,29.87,SW,225,0.0,-999.0,90,-99.99,,,0.00,Acu-Link.com,2013-06-22 08:32:00,
2013-06-22 04:47:00,68.2,65.5,29.88,WSW,247,0.0,-999.0,91,-99.99,,,0.00,Acu-Link.com,2013-06-22 08:47:00,
2013-06-22 05:03:00,67.8,65.4,29.89,East,90,0.0,-999.0,92,-99.99,,,0.00,Acu-Link.com,2013-06-22 09:03:00,
2013-06-22 05:18:00,66.7,64.6,29.89,SW,225,0.0,-999.0,93,-99.99,,,0.00,Acu-Link.com,2013-06-22 09:18:00,
2013-06-22 05:33:00,66.2,64.4,29.88,WNW,292,0.0,-999.0,94,-99.99,,,0.00,Acu-Link.com,2013-06-22 09:33:00,
2013-06-22 05:48:00,66.2,64.7,29.88,SW,225,0.0,-999.0,95,-99.99,,,0.00,Acu-Link.com,2013-06-22 09:48:00,
2013-06-22 06:03:00,66.7,64.9,29.87,SW,225,0.0,-999.0,94,-99.99,,,0.00,Acu-Link.com,2013-06-22 10:03:00,
2013-06-22 06:18:00,66.7,64.9,29.90,NW,315,0.0,-999.0,94,-99.99,,,0.00,Acu-Link.com,2013-06-22 10:18:00,
2013-06-22 06:33:00,66.6,64.8,29.91,WSW,247,0.0,-999.0,94,-99.99,,,0.00,Acu-Link.com,2013-06-22 10:33:00,
2013-06-22 06:48:00,66.4,64.9,29.90,SW,225,0.0,-999.0,95,-99.99,,,0.00,Acu-Link.com,2013-06-22 10:48:00,
2013-06-22 07:04:00,66.7,64.9,29.91,SW,225,0.0,-999.0,94,-99.99,,,0.00,Acu-Link.com,2013-06-22 11:04:00,
2013-06-22 07:19:00,67.1,65.3,29.91,West,270,0.0,-999.0,94,-99.99,,,0.00,Acu-Link.com,2013-06-22 11:19:00,
2013-06-22 07:34:00,67.3,65.2,29.92,West,270,0.0,-999.0,93,-99.99,,,0.00,Acu-Link.com,2013-06-22 11:34:00,
2013-06-22 07:49:00,67.6,65.2,29.92,WSW,247,0.0,-999.0,92,-99.99,,,0.00,Acu-Link.com,2013-06-22 11:49:00,
2013-06-22 08:05:00,68.0,65.6,29.93,West,270,0.0,-999.0,92,-99.99,,,0.00,Acu-Link.com,2013-06-22 12:05:00,
2013-06-22 08:20:00,68.4,65.7,29.94,WNW,292,0.0,-999.0,91,-99.99,,,0.00,Acu-Link.com,2013-06-22 12:20:00,
2013-06-22 08:35:00,68.7,65.6,29.94,West,270,0.0,-999.0,90,-99.99,,,0.00,Acu-Link.com,2013-06-22 12:35:00,
2013-06-22 08:50:00,69.1,65.7,29.95,WSW,247,0.0,-999.0,89,-99.99,,,0.00,Acu-Link.com,2013-06-22 12:50:00,
2013-06-22 09:05:00,69.4,66.0,29.96,West,270,0.0,-999.0,89,-99.99,,,0.00,Acu-Link.com,2013-06-22 13:05:00,
2013-06-22 09:21:00,70.0,66.6,29.97,WSW,247,0.0,-999.0,89,-99.99,,,0.00,Acu-Link.com,2013-06-22 13:21:00,
2013-06-22 09:36:00,71.1,67.0,29.97,WSW,247,1.1,-999.0,87,-99.99,,,0.00,Acu-Link.com,2013-06-22 13:36:00,
2013-06-22 09:51:00,71.6,67.2,29.97,NNW,337,2.7,-999.0,86,-99.99,,,0.00,Acu-Link.com,2013-06-22 13:51:00,
2013-06-22 10:06:00,72.5,67.4,29.95,West,270,2.7,-999.0,84,-99.99,,,0.00,Acu-Link.com,2013-06-22 14:06:00,
2013-06-22 10:21:00,73.6,67.8,29.95,WNW,292,2.7,-999.0,82,-99.99,,,0.00,Acu-Link.com,2013-06-22 14:21:00,
2013-06-22 10:37:00,74.5,68.6,29.94,West,270,0.0,-999.0,82,-99.99,,,0.00,Acu-Link.com,2013-06-22 14:37:00,
2013-06-22 10:52:00,75.7,69.1,29.94,East,90,0.0,-999.0,80,-99.99,,,0.00,Acu-Link.com,2013-06-22 14:52:00,
2013-06-22 11:07:00,76.3,69.7,29.96,South,180,0.0,-999.0,80,-99.99,,,0.00,Acu-Link.com,2013-06-22 15:07:00,
2013-06-22 11:22:00,77.7,70.3,29.97,South,180,0.0,-999.0,78,-99.99,,,0.00,Acu-Link.com,2013-06-22 15:22:00,
2013-06-22 11:37:00,79.0,71.2,29.99,South,180,0.0,-999.0,77,-99.99,,,0.00,Acu-Link.com,2013-06-22 15:37:00,
2013-06-22 11:53:00,79.5,70.9,29.99,South,180,0.0,-999.0,75,-99.99,,,0.00,Acu-Link.com,2013-06-22 15:53:00,
2013-06-22 12:08:00,80.1,71.0,30.00,East,90,1.1,-999.0,74,-99.99,,,0.00,Acu-Link.com,2013-06-22 16:08:00,
2013-06-22 12:23:00,79.0,71.2,30.03,West,270,2.2,-999.0,77,-99.99,,,0.00,Acu-Link.com,2013-06-22 16:23:00,
2013-06-22 12:38:00,77.2,70.2,30.03,WNW,292,3.2,-999.0,79,-99.99,,,0.00,Acu-Link.com,2013-06-22 16:38:00,
2013-06-22 12:53:00,78.1,71.0,30.03,West,270,0.0,-999.0,79,-99.99,,,0.00,Acu-Link.com,2013-06-22 16:53:00,
2013-06-22 13:09:00,78.3,70.9,30.02,WNW,292,3.7,-999.0,78,-99.99,,,0.00,Acu-Link.com,2013-06-22 17:09:00,
2013-06-22 13:24:00,79.3,71.8,30.00,WSW,247,3.7,-999.0,78,-99.99,,,0.00,Acu-Link.com,2013-06-22 17:24:00,
2013-06-22 13:39:00,79.2,70.6,29.99,WNW,292,5.3,-999.0,75,-99.99,,,0.00,Acu-Link.com,2013-06-22 17:39:00,
2013-06-22 13:54:00,79.9,72.0,29.98,NNW,337,4.2,-999.0,77,-99.99,,,0.00,Acu-Link.com,2013-06-22 17:54:00,
2013-06-22 14:10:00,79.5,71.6,29.97,SSW,202,2.7,-999.0,77,-99.99,,,0.00,Acu-Link.com,2013-06-22 18:10:00,
2013-06-22 14:25:00,80.1,71.8,29.95,SSW,202,2.7,-999.0,76,-99.99,,,0.00,Acu-Link.com,2013-06-22 18:25:00,
2013-06-22 14:40:00,81.0,71.5,29.93,South,180,0.0,-999.0,73,-99.99,,,0.00,Acu-Link.com,2013-06-22 18:40:00,
2013-06-22 14:55:00,81.5,71.2,29.94,WSW,247,1.7,-999.0,71,-99.99,,,0.00,Acu-Link.com,2013-06-22 18:55:00,
2013-06-22 15:10:00,82.2,71.0,29.91,SW,225,3.2,-999.0,69,-99.99,,,0.00,Acu-Link.com,2013-06-22 19:10:00,
2013-06-22 15:26:00,82.4,70.8,29.91,South,180,4.2,-999.0,68,-99.99,,,0.00,Acu-Link.com,2013-06-22 19:26:00,
2013-06-22 15:41:00,83.8,72.5,29.91,WSW,247,4.2,-999.0,69,-99.99,,,0.00,Acu-Link.com,2013-06-22 19:41:00,
2013-06-22 15:56:00,85.5,72.4,29.89,West,270,1.1,-999.0,65,-99.99,,,0.00,Acu-Link.com,2013-06-22 19:56:00,
2013-06-22 16:11:00,86.4,73.7,29.89,South,180,2.7,-999.0,66,-99.99,,,0.00,Acu-Link.com,2013-06-22 20:11:00,
2013-06-22 16:26:00,88.0,72.3,29.87,WSW,247,3.2,-999.0,60,-99.99,,,0.00,Acu-Link.com,2013-06-22 20:26:00,
2013-06-22 16:42:00,90.1,72.8,29.87,WSW,247,3.7,-999.0,57,-99.99,,,0.00,Acu-Link.com,2013-06-22 20:42:00,
2013-06-22 16:57:00,90.7,73.9,29.88,WSW,247,0.0,-999.0,58,-99.99,,,0.00,Acu-Link.com,2013-06-22 20:57:00,
2013-06-22 17:12:00,92.1,73.6,29.87,WSW,247,3.2,-999.0,55,-99.99,,,0.00,Acu-Link.com,2013-06-22 21:12:00,
2013-06-22 17:27:00,94.3,75.1,29.88,West,270,1.1,-999.0,54,-99.99,,,0.00,Acu-Link.com,2013-06-22 21:27:00,
2013-06-22 17:42:00,92.8,73.7,29.89,WSW,247,1.7,-999.0,54,-99.99,,,0.00,Acu-Link.com,2013-06-22 21:42:00,
2013-06-22 17:58:00,94.8,75.0,29.90,West,270,0.0,-999.0,53,-99.99,,,0.00,Acu-Link.com,2013-06-22 21:58:00,
2013-06-22 18:13:00,93.9,74.1,29.90,WSW,247,1.1,-999.0,53,-99.99,,,0.00,Acu-Link.com,2013-06-22 22:13:00,
2013-06-22 18:28:00,94.1,73.7,29.90,NW,315,0.0,-999.0,52,-99.99,,,0.00,Acu-Link.com,2013-06-22 22:28:00,
2013-06-22 18:43:00,92.1,72.5,29.91,WSW,247,2.7,-999.0,53,-99.99,,,0.00,Acu-Link.com,2013-06-22 22:43:00,
2013-06-22 18:59:00,88.3,72.6,29.91,WSW,247,0.0,-999.0,60,-99.99,,,0.00,Acu-Link.com,2013-06-22 22:59:00,
2013-06-22 19:14:00,85.6,72.9,29.90,NW,315,3.7,-999.0,66,-99.99,,,0.00,Acu-Link.com,2013-06-22 23:14:00,
2013-06-22 19:29:00,84.0,72.7,29.90,West,270,0.0,-999.0,69,-99.99,,,0.00,Acu-Link.com,2013-06-22 23:29:00,
2013-06-22 19:44:00,82.4,72.4,29.90,West,270,0.0,-999.0,72,-99.99,,,0.00,Acu-Link.com,2013-06-22 23:44:00,
2013-06-22 19:59:00,81.3,71.4,29.91,WNW,292,2.2,-999.0,72,-99.99,,,0.00,Acu-Link.com,2013-06-22 23:59:00,
2013-06-22 20:15:00,80.1,70.6,29.91,WNW,292,0.0,-999.0,73,-99.99,,,0.00,Acu-Link.com,2013-06-23 00:15:00,
2013-06-22 20:30:00,79.0,70.4,29.90,West,270,0.0,-999.0,75,-99.99,,,0.00,Acu-Link.com,2013-06-23 00:30:00,
2013-06-22 20:45:00,78.3,70.1,29.90,West,270,0.0,-999.0,76,-99.99,,,0.00,Acu-Link.com,2013-06-23 00:45:00,
2013-06-22 21:00:00,77.5,70.5,29.90,West,270,0.0,-999.0,79,-99.99,,,0.00,Acu-Link.com,2013-06-23 01:00:00,
2013-06-22 21:15:00,76.8,70.1,29.89,WSW,247,0.0,-999.0,80,-99.99,,,0.00,Acu-Link.com,2013-06-23 01:15:00,
2013-06-22 21:31:00,75.2,70.0,29.89,West,270,0.0,-999.0,84,-99.99,,,0.00,Acu-Link.com,2013-06-23 01:31:00,
2013-06-22 21:46:00,73.8,69.7,29.89,WNW,292,0.0,-999.0,87,-99.99,,,0.00,Acu-Link.com,2013-06-23 01:46:00,
2013-06-22 22:01:00,73.2,69.1,29.89,WNW,292,0.0,-999.0,87,-99.99,,,0.00,Acu-Link.com,2013-06-23 02:01:00,
2013-06-22 22:16:00,72.1,68.7,29.90,SW,225,0.0,-999.0,89,-99.99,,,0.00,Acu-Link.com,2013-06-23 02:16:00,
2013-06-22 22:31:00,71.6,68.2,29.90,WSW,247,0.0,-999.0,89,-99.99,,,0.00,Acu-Link.com,2013-06-23 02:31:00,
2013-06-22 22:47:00,70.9,68.5,29.90,West,270,0.0,-999.0,92,-99.99,,,0.00,Acu-Link.com,2013-06-23 02:47:00,
2013-06-22 23:02:00,70.3,67.9,29.90,WNW,292,0.0,-999.0,92,-99.99,,,0.00,Acu-Link.com,2013-06-23 03:02:00,
2013-06-22 23:17:00,69.6,67.5,29.91,WNW,292,0.0,-999.0,93,-99.99,,,0.00,Acu-Link.com,2013-06-23 03:17:00,
2013-06-22 23:32:00,69.3,67.2,29.92,WNW,292,0.0,-999.0,93,-99.99,,,0.00,Acu-Link.com,2013-06-23 03:32:00,
2013-06-22 23:47:00,68.9,67.1,29.91,ENE,67,0.0,-999.0,94,-99.99,,,0.00,Acu-Link.com,2013-06-23 03:47:00,